Weather History for KMQJ - December, 2013

Change the Weather History Date:

Wednesday, December 18, 2013

  Actual Average (KEYE) Record (KEYE)
Temperature  
Mean Temperature 22 °F 31 °F  
Max Temperature 33 °F 37 °F 57 °F (2002)
Min Temperature 12 °F 24 °F 3 °F (2000)
Degree Days  
Heating Degree Days 42 34  
Month to date heating degree days 567  
Since 1 July heating degree days 1591  
Cooling Degree Days 0 0  
Month to date cooling degree days 0  
Year to date cooling degree days 1058  
Moisture  
Dew Point 17 °F    
Average Humidity 70    
Maximum Humidity 100    
Minimum Humidity 51    
Precipitation  
Precipitation 0.00 in 0.08 in 0.74 in (2002)
Month to date precipitation 1.46  
Year to date precipitation 39.17  
Sea Level Pressure  
Sea Level Pressure 30.14 in    
Wind  
Wind Speed 9 mph (SW)    
Max Wind Speed 16 mph    
Max Gust Speed 21 mph    
Visibility 10 miles    
Events      
T = Trace of Precipitation, MM = Missing Value Source: NWS Daily Summary

Daily Weather History Graph

Daily Weather History Graph

Search for Another Location

Airport or City:

Trip Planner

Search our weather history database for the weather conditions in past years. The results will help you decide how hot, cold, wet, or windy it might be!

Date:

Astronomy

Dec. 18, 2013 Rise Set
Actual Time 7:59 AM EST 5:20 PM EST
Civil Twilight 7:29 AM EST 5:51 PM EST
Nautical Twilight 6:55 AM EST 6:25 PM EST
Astronomical Twilight 6:22 AM EST 6:58 PM EST
Moon 6:52 PM EST (12/18) 8:39 AM EST (12/18)
Length of Visible Light 10h 21m
Length of Day
9h 20m
Full, 98% of the Moon is Illuminated
Dec 18
Full
Dec 25
Last Quarter
Jan 1
New
Jan 7
First Quarter
Jan 15
Full

Hourly Weather History & Observations

Time (EST) Temp. Windchill Dew Point Humidity Pressure Visibility Wind Dir Wind Speed Gust Speed Precip Events Conditions
12:14 AM 21.2 °F 12.6 °F - N/A% 30.14 in 7.0 mi WSW 6.9 mph - N/A   Clear
12:34 AM 21.2 °F 12.6 °F - N/A% 30.14 in 5.0 mi WSW 6.9 mph - N/A   Clear
12:54 AM 21.2 °F 11.7 °F - N/A% 30.14 in 7.0 mi WSW 8.1 mph - N/A   Clear
1:14 AM 21.2 °F 11.7 °F 21.2 °F 100% 30.14 in 7.0 mi SW 8.1 mph - N/A   Clear
1:35 AM 21.2 °F 10.1 °F 21.2 °F 100% 30.14 in 7.0 mi West 10.4 mph - N/A   Clear
1:54 AM 23.0 °F 10.6 °F 23.0 °F 100% 30.14 in 10.0 mi West 13.8 mph - N/A   Clear
2:14 AM 21.2 °F 10.1 °F 21.2 °F 100% 30.14 in 10.0 mi West 10.4 mph - N/A   Clear
2:34 AM 21.2 °F 8.9 °F 21.2 °F 100% 30.15 in 10.0 mi West 12.7 mph - N/A   Clear
2:54 AM 21.2 °F 9.5 °F 17.6 °F 86% 30.16 in 10.0 mi West 11.5 mph - N/A   Clear
3:15 AM 21.2 °F 9.5 °F 15.8 °F 80% 30.16 in 10.0 mi West 11.5 mph - N/A   Clear
3:34 AM 21.2 °F 9.5 °F 15.8 °F 80% 30.16 in 10.0 mi West 11.5 mph - N/A   Clear
3:54 AM 19.4 °F 8.6 °F 15.8 °F 86% 30.16 in 10.0 mi West 9.2 mph - N/A   Clear
4:15 AM 17.6 °F 6.4 °F 14.0 °F 86% 30.16 in 10.0 mi West 9.2 mph - N/A   Clear
4:34 AM 17.6 °F 6.4 °F 14.0 °F 86% 30.16 in 10.0 mi West 9.2 mph - N/A   Clear
4:54 AM 17.6 °F 6.4 °F 14.0 °F 86% 30.16 in 10.0 mi West 9.2 mph - N/A   Clear
5:14 AM 17.6 °F 6.4 °F 14.0 °F 86% 30.17 in 10.0 mi West 9.2 mph - N/A   Clear
5:34 AM 17.6 °F 6.4 °F 12.2 °F 79% 30.17 in 10.0 mi West 9.2 mph - N/A   Clear
5:55 AM 14.0 °F 2.9 °F 10.4 °F 86% 30.18 in 10.0 mi WSW 8.1 mph - N/A   Clear
6:14 AM 14.0 °F 2.0 °F 10.4 °F 86% 30.19 in 10.0 mi WSW 9.2 mph - N/A   Clear
6:34 AM 15.8 °F 3.4 °F 12.2 °F 86% 30.19 in 10.0 mi West 10.4 mph - N/A   Clear
6:54 AM 17.6 °F 6.4 °F 12.2 °F 79% 30.19 in 10.0 mi West 9.2 mph - N/A   Clear
7:14 AM 14.0 °F 2.0 °F 10.4 °F 86% 30.20 in 10.0 mi West 9.2 mph - N/A   Clear
7:34 AM 14.0 °F 3.9 °F 10.4 °F 86% 30.20 in 10.0 mi WSW 6.9 mph - N/A   Clear
7:54 AM 12.2 °F 0.7 °F 10.4 °F 92% 30.22 in 10.0 mi WSW 8.1 mph - N/A   Clear
8:15 AM 12.2 °F 1.7 °F 10.4 °F 92% 30.22 in 10.0 mi WSW 6.9 mph - N/A   Clear
8:34 AM 14.0 °F 3.9 °F 10.4 °F 86% 30.23 in 10.0 mi WSW 6.9 mph - N/A   Clear
8:54 AM 17.6 °F 7.3 °F 12.2 °F 79% 30.23 in 10.0 mi WSW 8.1 mph - N/A   Clear
9:15 AM 19.4 °F 10.4 °F 14.0 °F 80% 30.23 in 10.0 mi WSW 6.9 mph - N/A   Clear
9:34 AM 21.2 °F 12.6 °F 14.0 °F 74% 30.22 in 10.0 mi WSW 6.9 mph - N/A   Clear
9:54 AM 23.0 °F 11.1 °F 14.0 °F 68% 30.23 in 10.0 mi WSW 12.7 mph - N/A   Clear
10:14 AM 23.0 °F 13.1 °F 15.8 °F 74% 30.24 in 10.0 mi WSW 9.2 mph - N/A   Clear
10:34 AM 24.8 °F 14.0 °F 15.8 °F 69% 30.24 in 10.0 mi West 11.5 mph - N/A   Clear
10:54 AM 26.6 °F 19.1 °F 15.8 °F 64% 30.24 in 10.0 mi WSW 6.9 mph - N/A   Clear
11:14 AM 26.6 °F 17.5 °F 15.8 °F 64% 30.24 in 10.0 mi WSW 9.2 mph - N/A   Clear
11:35 AM 28.4 °F 21.2 °F 15.8 °F 59% 30.24 in 10.0 mi WSW 6.9 mph - N/A   Clear
11:54 AM 28.4 °F 19.7 °F 15.8 °F 59% 30.24 in 10.0 mi WSW 9.2 mph - N/A   Clear
12:14 PM 30.2 °F 23.4 °F 17.6 °F 60% 30.24 in 10.0 mi West 6.9 mph - N/A   Clear
12:34 PM 30.2 °F 21.9 °F 17.6 °F 60% 30.23 in 10.0 mi WSW 9.2 mph - N/A   Clear
12:54 PM 32.0 °F 26.4 °F 15.8 °F 51% 30.22 in 10.0 mi SW 5.8 mph - N/A   Clear
1:15 PM 32.0 °F 25.6 °F 15.8 °F 51% 30.21 in 10.0 mi SW 6.9 mph - N/A   Clear
1:34 PM 32.0 °F 24.2 °F 17.6 °F 55% 30.20 in 10.0 mi South 9.2 mph - N/A   Clear
1:54 PM 30.2 °F 21.9 °F 17.6 °F 60% 30.20 in 10.0 mi South 9.2 mph - N/A   Clear
2:15 PM 32.0 °F 24.8 °F 17.6 °F 55% 30.19 in 10.0 mi South 8.1 mph - N/A   Clear
2:34 PM 32.0 °F 24.2 °F 17.6 °F 55% 30.18 in 10.0 mi South 9.2 mph - N/A   Clear
2:54 PM 32.0 °F 24.2 °F 17.6 °F 55% 30.16 in 10.0 mi South 9.2 mph - N/A   Clear
3:14 PM 32.0 °F 24.8 °F 17.6 °F 55% 30.16 in 10.0 mi SSE 8.1 mph - N/A   Clear
3:34 PM 32.0 °F 24.2 °F 17.6 °F 55% 30.14 in 10.0 mi South 9.2 mph - N/A   Clear
3:55 PM 32.0 °F 23.6 °F 17.6 °F 55% 30.14 in 10.0 mi South 10.4 mph - N/A   Clear
4:14 PM 32.0 °F 24.8 °F 19.4 °F 60% 30.13 in 10.0 mi SSE 8.1 mph - N/A   Clear
4:34 PM 30.2 °F 21.9 °F 19.4 °F 64% 30.12 in 10.0 mi SSE 9.2 mph - N/A   Clear
4:54 PM 30.2 °F 21.3 °F 19.4 °F 64% 30.11 in 10.0 mi South 10.4 mph - N/A   Clear
5:15 PM 30.2 °F 21.3 °F 19.4 °F 64% 30.09 in 10.0 mi South 10.4 mph - N/A   Clear
5:34 PM 30.2 °F 19.3 °F 17.6 °F 60% 30.07 in 10.0 mi South 15.0 mph 18.4 mph N/A   Clear
5:54 PM 32.0 °F 22.1 °F 17.6 °F 55% 30.06 in 10.0 mi South 13.8 mph 20.7 mph N/A   Clear
6:15 PM 32.0 °F 22.1 °F 19.4 °F 60% 30.06 in 10.0 mi South 13.8 mph 18.4 mph N/A   Clear
6:34 PM 32.0 °F 22.5 °F 19.4 °F 60% 30.05 in 10.0 mi South 12.7 mph - N/A   Clear
6:54 PM 30.2 °F 20.2 °F 19.4 °F 64% 30.04 in 10.0 mi South 12.7 mph - N/A   Clear
7:14 PM 32.0 °F 21.2 °F 19.4 °F 60% 30.04 in 10.0 mi South 16.1 mph 20.7 mph N/A   Clear
7:34 PM 32.0 °F 22.5 °F 19.4 °F 60% 30.03 in 10.0 mi South 12.7 mph 18.4 mph N/A   Clear
7:55 PM 32.0 °F 23.6 °F 19.4 °F 60% 30.03 in 10.0 mi South 10.4 mph - N/A   Clear
8:14 PM 32.0 °F 22.5 °F 19.4 °F 60% 30.03 in 10.0 mi South 12.7 mph - N/A   Clear
8:34 PM 32.0 °F 23.0 °F 19.4 °F 60% 30.02 in 10.0 mi South 11.5 mph 17.3 mph N/A   Clear
8:55 PM 32.0 °F 22.5 °F 19.4 °F 60% 30.02 in 10.0 mi South 12.7 mph - N/A   Clear
9:14 PM 33.8 °F 24.8 °F 19.4 °F 56% 30.01 in 10.0 mi South 12.7 mph - N/A   Clear
9:34 PM 32.0 °F 22.5 °F 19.4 °F 60% 30.00 in 10.0 mi South 12.7 mph - N/A   Clear
9:55 PM 32.0 °F 23.0 °F 21.2 °F 64% 30.00 in 10.0 mi South 11.5 mph - N/A   Clear
10:14 PM 32.0 °F 23.6 °F 19.4 °F 60% 30.00 in 10.0 mi South 10.4 mph - N/A   Clear
10:34 PM 32.0 °F 24.8 °F 19.4 °F 60% 30.00 in 10.0 mi South 8.1 mph - N/A   Clear
10:54 PM 32.0 °F 24.8 °F 19.4 °F 60% 30.00 in 10.0 mi South 8.1 mph - N/A   Clear
11:14 PM 32.0 °F 24.8 °F 19.4 °F 60% 30.00 in 10.0 mi South 8.1 mph - N/A   Clear
11:35 PM 30.2 °F 23.4 °F 19.4 °F 64% 30.01 in 10.0 mi South 6.9 mph - N/A   Clear
11:54 PM 30.2 °F 22.6 °F 19.4 °F 64% 30.01 in 10.0 mi South 8.1 mph - N/A   Clear